Weather History for Seminole, TX

Change the Weather History Date:

Saturday, February 15, 2014

  Actual Average (KHOB) Record (KHOB)
Temperature  
Mean Temperature 60 °F -  
Max Temperature 84 °F 60 °F 82 °F (2014)
Min Temperature 35 °F 33 °F 9 °F (1951)
Degree Days  
Heating Degree Days 6    
Growing Degree Days 10 (Base 50)    
Moisture  
Dew Point 25 °F    
Average Humidity 36    
Maximum Humidity 69    
Minimum Humidity 10    
Precipitation  
Precipitation 0.00 in - - ()
Sea Level Pressure  
Sea Level Pressure 30.04 in    
Wind  
Wind Speed 7 mph (West)    
Max Wind Speed 22 mph    
Max Gust Speed 29 mph    
Visibility 10 miles    
Events      
Averages and records for this station are not official NWS values.
T = Trace of Precipitation, MM = Missing Value Source: NWS Daily Summary

Daily Weather History Graph

Daily Weather History Graph

Search for Another Location

Airport:

Trip Planner

Search our weather history database for the weather conditions in past years. The results will help you decide how hot, cold, wet, or windy it might be!

Date:

Astronomy

Feb. 15, 2014 Rise Set
Actual Time 7:33 AM CST 6:36 PM CST
Civil Twilight 7:08 AM CST 7:01 PM CST
Nautical Twilight 6:39 AM CST 7:30 PM CST
Astronomical Twilight 6:10 AM CST 7:59 PM CST
Moon 7:32 PM CST (2/15) 7:38 AM CST (2/15)
Length of Visible Light 11h 53m
Length of Day
11h 02m
Waxing Gibbous, 99% of the Moon is Illuminated
Feb 15
Waxing Gibbous
Feb 22
Last Quarter
Mar 1
New
Mar 8
First Quarter
Mar 16
Full

Hourly Weather History & Observations

Time (CST) Temp. Windchill Dew Point Humidity Pressure Visibility Wind Dir Wind Speed Gust Speed Precip Events Conditions
12:15 AM 41.5 °F 39.6 °F 27.0 °F 56% 30.12 in 10.0 mi SSE 3.5 mph - N/A   Clear
12:35 AM 41.4 °F 39.4 °F 26.8 °F 56% 30.12 in 10.0 mi South 3.5 mph - N/A   Clear
12:55 AM 40.3 °F - 26.6 °F 58% 30.11 in 10.0 mi Calm Calm - N/A   Clear
1:15 AM 40.5 °F 36.5 °F 26.6 °F 58% 30.11 in 10.0 mi South 5.8 mph - N/A   Clear
1:35 AM 40.3 °F 36.3 °F 26.8 °F 59% 30.10 in 10.0 mi SSW 5.8 mph - N/A   Clear
1:55 AM 39.4 °F 36.1 °F 26.6 °F 60% 30.11 in 10.0 mi WSW 4.6 mph - N/A   Clear
2:15 AM 39.2 °F 35.9 °F 26.6 °F 61% 30.11 in 10.0 mi WSW 4.6 mph - N/A   Clear
2:35 AM 36.7 °F 34.1 °F 25.7 °F 64% 30.11 in 10.0 mi West 3.5 mph - N/A   Clear
2:55 AM 38.7 °F 35.2 °F 26.4 °F 61% 30.11 in 10.0 mi West 4.6 mph - N/A   Clear
3:15 AM 38.7 °F 34.3 °F 26.6 °F 62% 30.10 in 10.0 mi WSW 5.8 mph - N/A   Clear
3:35 AM 39.0 °F 35.7 °F 26.6 °F 61% 30.09 in 10.0 mi West 4.6 mph - N/A   Clear
3:55 AM 40.1 °F 36.1 °F 26.6 °F 59% 30.09 in 10.0 mi West 5.8 mph - N/A   Clear
4:15 AM 42.6 °F 39.0 °F 26.2 °F 52% 30.08 in 10.0 mi SW 5.8 mph - N/A   Clear
4:35 AM 43.2 °F 37.4 °F 25.9 °F 51% 30.07 in 10.0 mi SSW 10.4 mph - N/A   Clear
4:55 AM 41.9 °F 39.0 °F 26.1 °F 53% 30.07 in 10.0 mi SSW 4.6 mph - N/A   Clear
5:15 AM 40.8 °F - 26.1 °F 56% 30.07 in 10.0 mi Calm Calm - N/A   Clear
5:35 AM 38.1 °F - 25.9 °F 61% 30.07 in 10.0 mi Calm Calm - N/A   Clear
5:55 AM 37.2 °F 32.6 °F 25.9 °F 64% 30.07 in 10.0 mi North 5.8 mph - N/A   Clear
6:15 AM 35.4 °F 32.6 °F 25.5 °F 67% 30.06 in 10.0 mi NNW 3.5 mph - N/A   Clear
6:35 AM 35.6 °F 31.7 °F 25.7 °F 67% 30.06 in 10.0 mi North 4.6 mph - N/A   Clear
6:55 AM 35.4 °F - 25.7 °F 68% 30.07 in 10.0 mi Calm Calm - N/A   Clear
7:15 AM 35.6 °F 32.8 °F 26.2 °F 69% 30.07 in 10.0 mi West 3.5 mph - N/A   Clear
7:35 AM 36.5 °F 31.8 °F 25.7 °F 65% 30.06 in 10.0 mi WSW 5.8 mph - N/A   Clear
7:55 AM 36.3 °F 33.7 °F 25.7 °F 65% 30.07 in 10.0 mi West 3.5 mph - N/A   Clear
8:15 AM 37.0 °F - 26.6 °F 66% 30.07 in 10.0 mi Calm Calm - N/A   Clear
8:35 AM 39.6 °F - 27.0 °F 61% 30.07 in 10.0 mi Calm Calm - N/A   Clear
8:55 AM 41.5 °F 39.6 °F 27.5 °F 57% 30.07 in 10.0 mi WSW 3.5 mph - N/A   Clear
9:15 AM 45.1 °F 42.0 °F 28.0 °F 51% 30.07 in 10.0 mi WSW 5.8 mph - N/A   Clear
9:35 AM 48.2 °F - 28.4 °F 46% 30.07 in 10.0 mi WSW 6.9 mph - N/A   Clear
9:55 AM 51.6 °F - 28.6 °F 41% 30.07 in 10.0 mi WSW 8.1 mph - N/A   Clear
10:15 AM 55.2 °F - 28.9 °F 37% 30.07 in 10.0 mi SW 9.2 mph - N/A   Clear
10:35 AM 58.3 °F - 29.7 °F 34% 30.07 in 10.0 mi SW 9.2 mph - N/A   Clear
10:55 AM 62.4 °F - 30.6 °F 30% 30.07 in 10.0 mi WSW 8.1 mph - N/A   Clear
11:15 AM 66.9 °F - 30.9 °F 26% 30.06 in 10.0 mi WSW 6.9 mph - N/A   Clear
11:35 AM 72.3 °F - 30.2 °F 21% 30.06 in 10.0 mi West 12.7 mph 16.1 mph N/A   Clear
11:55 AM 75.9 °F - 30.0 °F 19% 30.05 in 10.0 mi NW 19.6 mph 26.5 mph N/A   Clear
12:15 PM 78.8 °F - 27.0 °F 15% 30.04 in 10.0 mi WNW 20.7 mph 28.8 mph N/A   Clear
12:35 PM 79.5 °F - 26.8 °F 14% 30.03 in 10.0 mi WNW 17.3 mph 26.5 mph N/A   Clear
12:55 PM 80.6 °F - 26.6 °F 14% 30.02 in 10.0 mi NW 21.9 mph - N/A   Clear
1:15 PM 81.5 °F - 26.8 °F 14% 30.01 in 10.0 mi NW 21.9 mph 26.5 mph N/A   Clear
1:35 PM 81.9 °F - 26.1 °F 13% 30.00 in 10.0 mi NW 20.7 mph 25.3 mph N/A   Clear
1:55 PM 82.2 °F - 25.9 °F 13% 30.00 in 10.0 mi NNW 20.7 mph 26.5 mph N/A   Clear
2:15 PM 82.0 °F - 25.7 °F 13% 29.99 in 10.0 mi NW 20.7 mph 25.3 mph N/A   Clear
2:35 PM 83.1 °F - 24.8 °F 12% 29.98 in 10.0 mi NW 19.6 mph - N/A   Clear
2:55 PM 83.3 °F - 24.1 °F 11% 29.98 in 10.0 mi NW 18.4 mph 23.0 mph N/A   Clear
3:15 PM 84.2 °F - 23.4 °F 11% 29.98 in 10.0 mi NNW 18.4 mph 24.2 mph N/A   Clear
3:35 PM 83.7 °F - 23.5 °F 11% 29.98 in 10.0 mi NW 15.0 mph 23.0 mph N/A   Clear
3:55 PM 83.7 °F - 23.7 °F 11% 29.98 in 10.0 mi NW 12.7 mph - N/A   Clear
4:15 PM 84.2 °F - 22.6 °F 10% 29.98 in 10.0 mi WNW 10.4 mph 18.4 mph N/A   Clear
4:35 PM 84.0 °F - 21.6 °F 10% 29.98 in 10.0 mi WNW 16.1 mph 20.7 mph N/A   Clear
4:55 PM 83.8 °F - 22.1 °F 10% 29.98 in 10.0 mi West 11.5 mph - N/A   Clear
5:15 PM 83.5 °F - 21.7 °F 10% 29.97 in 10.0 mi West 8.1 mph - N/A   Clear
5:35 PM 82.4 °F - 21.4 °F 11% 29.98 in 10.0 mi West 8.1 mph - N/A   Clear
5:55 PM 81.0 °F - 21.0 °F 11% 29.98 in 10.0 mi West 6.9 mph - N/A   Clear
6:15 PM 77.9 °F - 21.0 °F 12% 29.98 in 10.0 mi West 4.6 mph - N/A   Clear
6:35 PM 75.2 °F - 20.1 °F 13% 29.98 in 10.0 mi WSW 6.9 mph - N/A   Clear
6:55 PM 71.8 °F - 19.6 °F 14% 29.99 in 10.0 mi West 6.9 mph - N/A   Clear
7:15 PM 69.8 °F - 19.4 °F 15% 30.00 in 10.0 mi West 5.8 mph - N/A   Clear
7:35 PM 67.1 °F - 19.6 °F 16% 30.00 in 10.0 mi West 6.9 mph - N/A   Clear
7:55 PM 64.8 °F - 20.1 °F 18% 30.00 in 10.0 mi WSW 8.1 mph - N/A   Clear
8:15 PM 62.6 °F - 20.8 °F 20% 30.00 in 10.0 mi WSW 8.1 mph - N/A   Clear
8:35 PM 61.5 °F - 21.0 °F 21% 30.01 in 10.0 mi West 6.9 mph - N/A   Clear
8:55 PM 60.4 °F - 20.8 °F 22% 30.01 in 10.0 mi West 5.8 mph - N/A   Clear
9:15 PM 57.6 °F - 21.7 °F 25% 30.01 in 10.0 mi West 5.8 mph - N/A   Clear
9:35 PM 59.0 °F - 21.9 °F 24% 30.01 in 10.0 mi West 4.6 mph - N/A   Clear
9:55 PM 56.3 °F - 22.1 °F 27% 30.01 in 10.0 mi West 4.6 mph - N/A   Clear
10:15 PM 58.3 °F - 22.5 °F 25% 30.01 in 10.0 mi West 6.9 mph - N/A   Clear
10:35 PM 56.8 °F - 22.6 °F 27% 30.01 in 10.0 mi West 6.9 mph - N/A   Clear
10:55 PM 55.6 °F - 22.8 °F 28% 30.01 in 10.0 mi WNW 3.5 mph - N/A   Clear
11:15 PM 52.9 °F - 22.5 °F 31% 30.01 in 10.0 mi SW 4.6 mph - N/A   Clear
11:35 PM 50.9 °F - 23.0 °F 34% 30.02 in 10.0 mi SW 4.6 mph - N/A   Clear
11:55 PM 53.8 °F - 23.0 °F 30% 30.02 in 10.0 mi South 4.6 mph - N/A   Clear